Overview Statistics Trail Chart Weather Telemetry Raw packets
 

This is the latest recevied weather packets stored in our database for station/object GBTWP-2. If no packets are shown the sender has not sent any weather packets the latest 10 day(s).

<< 108 109 110 111 112 113 114 >>
Time Temp. Humidity Pressure Rain* Wind** Luminosity Snow
1787860019 27.78° C 53% 1017.3 hPa 0 mm - 578 W/m² -
1787859721 26.67° C 54% 1017.3 hPa 0 mm - 598 W/m² -
1787859419 27.78° C 54% 1017.2 hPa 0 mm - 602 W/m² -
1787859120 27.22° C 55% 1017.3 hPa 0 mm - 618 W/m² -
1787858820 27.22° C 56% 1017.4 hPa 0 mm - 169 W/m² -
1787858518 26.67° C 57% 1017.3 hPa 0 mm - 576 W/m² -
1787858220 26.67° C 58% 1017.4 hPa 0 mm - 595 W/m² -
1787857920 26.67° C 55% 1017.3 hPa 0 mm - 669 W/m² -
1787857620 26.67° C 57% 1017.3 hPa 0 mm - 652 W/m² -
1787857320 26.11° C 58% 1017.1 hPa 0 mm - 627 W/m² -
1787857020 26.11° C 59% 1017.3 hPa 0 mm - 633 W/m² -
1787856720 26.11° C 60% 1017.1 hPa 0 mm - 690 W/m² -
1787856420 26.67° C 56% 1017.1 hPa 0 mm - 129 W/m² -
1787856120 25.56° C 59% 1017.2 hPa 0 mm - 628 W/m² -
1787855819 25.56° C 61% 1017.2 hPa 0 mm - 513 W/m² -
1787855520 26.11° C 57% 1017.3 hPa 0 mm - 155 W/m² -
1787855220 25.56° C 61% 1017.4 hPa 0 mm - 726 W/m² -
1787854923 25° C 61% 1017.4 hPa 0 mm - 139 W/m² -
1787854620 25.56° C 60% 1017.4 hPa 0 mm - 183 W/m² -
1787854319 25.56° C 59% 1017.3 hPa 0 mm - 143 W/m² -
1787854019 25.56° C 61% 1017.4 hPa 0 mm - 139 W/m² -
1787853720 24.44° C 62% 1017.3 hPa 0 mm - 726 W/m² -
1787853421 24.44° C 63% 1017.3 hPa 0 mm - 143 W/m² -
1787853119 24.44° C 63% 1017.4 hPa 0 mm - 191 W/m² -
1787852819 25.56° C 61% 1017.4 hPa 0 mm - 141 W/m² -

* Rain latest hour (hover to see other rain measurements)
** Current wind speed in m/s (hover to see current wind gust speed)